Regional Weather Roundup
Issued by NWS

Home | Current Version | Previous Version | Graphics & Text | Print | Product List | Glossary On
Versions: 1 2 3 4 5 6 7 8 9 10 11 12 13 14 15 16 17 18 19 20 21 22 23 24 25 26 27 28 29 30 31 32 33 34 35 36 37 38 39 40 41 42 43 44 45 46 47 48 49 50
000
ASUS43 KMPX 151901
RWRMN
WEATHER ROUNDUP FOR MINNESOTA
NATIONAL WEATHER SERVICE TWIN CITIES/CHANHASSEN MN
100 PM CST SUN JAN 15 2017


NOTE: "FAIR" INDICATES FEW OR NO CLOUDS BELOW 12,000 FEET WITH NO
SIGNIFICANT WEATHER AND/OR OBSTRUCTIONS TO VISIBILITY. N/A MEANS
CURRENT SKY AND/OR WEATHER CONDITIONS ARE NOT AVAILABLE.

MNZ060>063-068>070-152000-
   Twin Cities Metro

CITY           SKY/WX    TMP DP  RH WIND       PRES   REMARKS
TWIN CITIES    SUNNY     28  18  66 SW5       30.27F WCI  23
ST PAUL        SUNNY     21  13  71 SE8       30.29F WCI  11
CRYSTAL        SUNNY     29  15  56 S9        30.25F WCI  20
BLAINE         MOSUNNY   28  18  64 S7        30.25F WCI  21
LAKEVILLE      SUNNY     28  19  69 S7        30.25F WCI  21
EDEN PRAIRIE   SUNNY     27  17  66 CALM      30.25F
SOUTH ST PAUL  SUNNY     22  12  64 SE3       30.28F
LAKE ELMO      FAIR      23  14  68 S9        30.28F WCI  13
$$
MNZ001>005-007-008-013>017-022>024-027-028-152000-
   Northwest Minnesota

CITY           SKY/WX    TMP DP  RH WIND       PRES   REMARKS
BEMIDJI        SUNNY     28  16  59 S8        30.09F WCI  20
HALLOCK        CLOUDY    10   5  79 S18       30.03F WCI  -8
ROSEAU         CLOUDY    18   9  68 SW14      30.02S WCI   4
WARROAD        SUNNY     21   9  58 SW13G18   30.01F WCI   9
THIEF RVR FALL CLOUDY    16   8  71 SW14      30.08F WCI   2
CROOKSTON      SUNNY     12   9  85 S13       30.11F WCI  -3
FOSSTON        CLOUDY    19  12  73 S13       30.10F WCI   7
DETROIT LAKES  SUNNY     27  18  69 SW9       30.12F WCI  17
MOORHEAD       CLOUDY    12   7  79 S10       30.15F WCI  -1
PARK RAPIDS    SUNNY     25  14  63 SW9       30.11F WCI  15
MAHNOMEN       FAIR      19  13  76 S7        30.11F WCI  10
$$
MNZ006-009>011-018-025>026-152000-
   North Central Minnesota

CITY           SKY/WX    TMP DP  RH WIND       PRES   REMARKS
BAUDETTE       SUNNY     23   9  55 SW10G20   30.01F WCI  12
FLAG ISLAND    CLOUDY    18   9  68 S9        29.96F WCI   6
INTL FALLS     SUNNY     25  11  55 SW9G20    30.04F WCI  15
WASKISH        SUNNY     27  14  59 SW9       30.07F WCI  17
BIG FORK       SUNNY     27  12  54 SW12      30.09F WCI  16
LONGVILLE      SUNNY     30  14  51 SW8       30.12F WCI  23
GRAND RAPIDS   SUNNY     33  14  45 S7        30.14F WCI  27
CRANE LAKE     SUNNY     27  10  50 W7        30.08S WCI  19
ORR            SUNNY     27   9  46 SW5       30.05F WCI  21
COOK           SUNNY     28  12  50 SW12      30.08F WCI  18
WALKER         FAIR      28  14  56 SW10      30.10F WCI  19
$$
MNZ012-019>021-037-152000-
   Northeast Minnesota

CITY           SKY/WX    TMP DP  RH WIND       PRES   REMARKS
DULUTH         SUNNY     25   9  50 SW14      30.14F WCI  13
ELY            SUNNY     27  10  50 SW9       30.07F WCI  17
HIBBING        SUNNY     27  10  49 VRB7      30.11F WCI  19
EVELETH        SUNNY     28   7  42 SW10G16   30.12F WCI  18
DULUTH HARBOR  SUNNY     27  12  54 SW13      30.20F WCI  16
TWO HARBORS    SUNNY     28  16  59 SW8       30.14F WCI  20
SILVER BAY     SUNNY     28  14  54 S7        30.12F WCI  21
GRAND MARAIS     N/A     32  25  75 SW21      30.12F WCI  20
G MARAIS ARPRT SUNNY     28  12  50 S8        30.05F WCI  20
$$
MNZ029>031-032-039>041-046>048-054>057-064-152000-
   West Central Minnesota

CITY           SKY/WX    TMP DP  RH WIND       PRES   REMARKS
FERGUS FALLS   SUNNY     19  14  79 S10       30.20F WCI   8
WHEATON        SUNNY     27  21  80 SE9       30.18F WCI  17
MORRIS         SUNNY     19  14  79 SE10      30.18F WCI   8
ALEXANDRIA     SUNNY     23  15  71 S9        30.16F WCI  13
ELBOW LAKE     FAIR      19  13  78 SE8       30.16F HAZE    WCI   9
WADENA         SUNNY     28  18  64 SW8       30.13F WCI  20
GLENWOOD       SUNNY     23  18  80 S8        30.18F WCI  14
APPLETON       SUNNY     25  16  68 E5        30.18F WCI  19
ORTONVILLE     SUNNY     23  12  63 CALM      30.16F
MADISON        SUNNY     36  21  55 S3        30.18S
WILLMAR        FAIR      25  19  80 CALM      30.22F
$$
MNZ033>034-036-042>043-049>051-058-059-152000-
   Central Minnesota

CITY           SKY/WX    TMP DP  RH WIND       PRES   REMARKS
ST CLOUD       SUNNY     25  16  68 S9        30.21F WCI  15
SAUK CENTRE    FAIR      24  16  73 S5        30.18F WCI  18
PAYNESVILLE    SUNNY     27  17  65 S8        30.21F WCI  19
AITKIN         SUNNY     30   7  37 S5        30.15F WCI  25
PINE RIVER     SUNNY     28  16  59 S7        30.17F WCI  21
BRAINERD       SUNNY     23  10  57 S8        30.16F WCI  14
STAPLES        SUNNY     28  16  59 SW8       30.14F WCI  20
LONG PRAIRIE   FAIR      27  14  59 S9        30.18F WCI  17
LITTLE FALLS   SUNNY     23  12  63 S7        30.18F WCI  15
LITCHFIELD     SUNNY     27  18  69 SW3       30.22F
BUFFALO        SUNNY     27  16  63 S5        30.25F WCI  22
MAPLE LAKE     SUNNY     28  18  66 SW6       30.24F WCI  22
HUTCHINSON     CLOUDY    27  19  73 S6        30.24F WCI  20
$$
MNZ037-044-045-052-053-152000-
   East Central Minnesota

CITY           SKY/WX    TMP DP  RH WIND       PRES   REMARKS
PRINCETON      SUNNY     28  16  59 S7        30.22F WCI  21
MORA           SUNNY     23  12  63 S3        30.23F
CAMBRIDGE      SUNNY     27  16  63 S7        30.21F WCI  19
RUSH CITY      SUNNY     25  12  58 S5        30.23F WCI  19
MOOSE LAKE     SUNNY     25   9  50 S8        30.18F WCI  16
CLOQUET        SUNNY     21   7  53 S10       30.16F WCI  10
MCGREGOR       SUNNY     28  12  50 SW12      30.17F WCI  18
$$
MNZ071>073-080-081-089-090-097-098-152000-
   Southwest Minnesota

CITY           SKY/WX    TMP DP  RH WIND       PRES   REMARKS
MONTEVIDEO     SUNNY     30  21  69 S6        30.21F WCI  24
GRANITE FALLS  SUNNY     29  22  76 SE8       30.22F WCI  21
CANBY          SUNNY     32  21  64 SW14G21   30.17F WCI  22
MARSHALL       SUNNY     35  20  54 SW22G28   30.15F WCI  23
REDWOOD FALLS  SUNNY     30  21  69 S12       30.22F WCI  20
OLIVIA         SUNNY     28  21  74 S8        30.21F WCI  20
PIPESTONE      SUNNY     30  21  69 SW13      30.18F WCI  20
WINDOM         SUNNY     34  21  60 SW13      30.22F WCI  25
WORTHINGTON    SUNNY     33  19  56 SW13      30.22F WCI  24
JACKSON        SUNNY     30  19  64 SW12      30.24F WCI  21
TRACY          SUNNY     34  23  64 SW20      30.18F WCI  22
SLAYTON        SUNNY     30  21  68 SW15      30.22F WCI  19
$$
MNZ065>067-074>077-082>085-091>093-152000-
   South Central Minnesota

CITY           SKY/WX    TMP DP  RH WIND       PRES   REMARKS
MANKATO        SUNNY     31  21  66 S12       30.26F WCI  22
NEW ULM        SUNNY     30  21  69 S8        30.23F WCI  23
ST JAMES       SUNNY     32  23  69 S8        30.26F WCI  25
FAIRMONT       SUNNY     31  22  69 S9        30.26F WCI  23
GLENCOE        SUNNY     28  23  81 S7        30.24F WCI  21
FARIBAULT      SUNNY     30  21  69 S12       30.26F WCI  21
OWATONNA       SUNNY     30  21  69 S12       30.26F WCI  21
WASECA         SUNNY     30  23  74 S13       30.28F WCI  20
ALBERT LEA     CLOUDY    28  19  69 S6        30.28F WCI  22
$$
MNZ078>079-086>088-094>096-152000-
   Southeast Minnesota

CITY           SKY/WX    TMP DP  RH WIND       PRES   REMARKS
ROCHESTER      CLOUDY    21  18  88 S12       30.28F WCI   9
RED WING       SUNNY     19  10  68 SE5       30.29F WCI  13
STANTON        SUNNY     31  21  65 SW9       30.26F WCI  23
DODGE CENTER   CLOUDY    23  19  86 S12       30.26F WCI  12
WINONA         SUNNY     21  12  68 SE3       30.34F
AUSTIN         CLOUDY   N/A N/A N/A S3        30.29F
PRESTON        CLOUDY    23  17  79 S6        30.31F WCI  16
$$
ABBREVIATIONS USED IN REMARKS
   TC - TEMPERATURES IN CELSIUS
  WCI - WIND CHILL INDEX
   HX - HEAT INDEX
  VSB - VISIBILITY
$$




USA.gov is the U.S. government's official web portal to all federal, state and local government web resources and services.